Regional Weather Roundup
Issued by NWS

Home | Current Version | Previous Version | Text Only | Print | Product List | Glossary On
Versions: 1 2 3 4 5 6 7 8 9 10 11 12 13 14 15 16 17 18 19 20 21 22 23 24 25 26 27 28 29 30 31 32 33 34 35 36 37 38 39 40 41 42 43 44 45 46 47 48 49 50
000
ASUS43 KTOP 050059
RWRKS

WEATHER ROUNDUP FOR KANSAS
NATIONAL WEATHER SERVICE GOODLAND KS
800 PM CDT FRI SEP 04 2015

NOTE:  "FAIR" INDICATES FEW OR NO CLOUDS BELOW 12,000 FEET WITH NO
SIGNIFICANT WEATHER AND/OR OBSTRUCTIONS TO VISIBILITY.

KSZ001>006-013>018-027>032-041>047-050200-
NORTHWEST KANSAS

CITY           SKY/WX    TMP DP  RH WIND       PRES   REMARKS
GOODLAND       MOCLDY    88  52  29 S17       29.88R
HAYS           CLEAR     91  59  33 S20G26    29.84R
HILL CITY      PTCLDY    93  56  28 S12G23    29.82R
RUSSELL        CLEAR     91  61  36 S16G25    29.83R
$$

KSZ061>065-074>080-084>089-050200-
SOUTHWEST KANSAS

CITY           SKY/WX    TMP DP  RH WIND       PRES   REMARKS
DODGE CITY     CLEAR     87  56  34 S14       29.89R
ELKHART          N/A     86  55  34 S9          N/A
GARDEN CITY    CLEAR     88  55  32 S17G28    29.86R
GREAT BEND     PTCLDY    90  63  40 S16       29.85S
LIBERAL        CLEAR     90  55  31 S13G23    29.90R
$$

KSZ066>073-081>083-090>101-050200-
SOUTHEAST KANSAS

CITY           SKY/WX    TMP DP  RH WIND       PRES   REMARKS
CHANUTE        CLEAR     80  71  74 SE6       29.94F
COFFEYVILLE    CLEAR     81  72  74 SE6       29.93S
HUTCHINSON     CLEAR     85  62  46 SE10      29.89R
NEWTON         CLEAR     82  64  54 SE10      29.93S
PARSONS        CLEAR     80  73  79 CALM      29.95S
WICHITA INTL   PTCLDY    86  66  51 SE10      29.89S
WICHITA JABRA  CLEAR     84  67  56 SE10      29.90S
WINFIELD       CLEAR     85  68  56 SE8       29.92S
$$

KSZ007>012-019>026-033>040-048>060-102>105-050200-
NORTHEAST KANSAS

CITY           SKY/WX    TMP DP  RH WIND       PRES   REMARKS
CONCORDIA      CLEAR     84  65  52 SE12      29.86S
EMPORIA        CLEAR     82  68  62 SE10      29.92S
LAWRENCE       CLEAR     81  69  67 SE8       29.93S
MANHATTAN      CLEAR     85  66  53 S6        29.88R
OLATHE IND     CLEAR     81  69  67 SE8       29.96S
OLATHE EXE     CLEAR     79  69  71 S6        29.95S
SALINA         CLEAR     88  63  43 SE13      29.86S
TOPEKA BILLARD CLEAR     83  68  60 SE10      29.91S
TOPEKA FORBES  CLEAR     83  69  62 SE9       29.92S
$$


USA.gov is the U.S. government's official web portal to all federal, state and local government web resources and services.